Time,TemperatureF,DewpointF,PressureIn,WindDirection,WindDirectionDegrees,WindSpeedMPH,WindSpeedGustMPH,Humidity,HourlyPrecipIn,Conditions,Clouds,dailyrainin,SolarRadiationWatts/m^2,SoftwareType,DateUTC
2013-01-22 00:00:00,54.2,47.1,30.13,SE,142,0.0,0.0,77,0.00,,,0.00,0,Wunderground v.1.15,2013-01-22 06:00:00,
2013-01-22 00:05:00,54.0,47.0,30.13,SE,142,0.0,0.0,77,0.00,,,0.00,0,Wunderground v.1.15,2013-01-22 06:05:00,
2013-01-22 00:10:00,53.7,47.0,30.13,SE,142,0.0,0.0,78,0.00,,,0.00,0,Wunderground v.1.15,2013-01-22 06:10:00,
2013-01-22 00:15:00,53.4,46.7,30.13,SE,142,0.0,0.0,78,0.00,,,0.00,0,Wunderground v.1.15,2013-01-22 06:15:00,
2013-01-22 00:25:00,52.9,46.6,30.13,SE,142,0.0,0.0,79,0.00,,,0.00,0,Wunderground v.1.15,2013-01-22 06:25:00,
2013-01-22 00:30:00,52.7,46.4,30.13,SE,142,0.0,0.0,79,0.00,,,0.00,0,Wunderground v.1.15,2013-01-22 06:30:00,
2013-01-22 00:35:00,52.5,46.2,30.13,SE,142,0.0,0.0,79,0.00,,,0.00,0,Wunderground v.1.15,2013-01-22 06:35:00,
2013-01-22 00:40:00,52.3,46.3,30.13,SE,142,0.0,0.0,80,0.00,,,0.00,0,Wunderground v.1.15,2013-01-22 06:40:00,
2013-01-22 00:45:00,52.2,46.2,30.13,SE,142,0.0,0.0,80,0.00,,,0.00,0,Wunderground v.1.15,2013-01-22 06:45:00,
2013-01-22 00:50:00,52.0,46.0,30.13,SE,142,0.0,0.0,80,0.00,,,0.00,0,Wunderground v.1.15,2013-01-22 06:50:00,
2013-01-22 01:00:00,51.6,45.6,30.13,SE,142,0.0,0.0,80,0.00,,,0.00,0,Wunderground v.1.15,2013-01-22 07:00:00,
2013-01-22 01:05:00,51.4,45.4,30.13,SE,142,0.0,0.0,80,0.00,,,0.00,0,Wunderground v.1.15,2013-01-22 07:05:00,
2013-01-22 01:10:00,51.2,45.2,30.13,SE,142,0.0,0.0,80,0.00,,,0.00,0,Wunderground v.1.15,2013-01-22 07:10:00,
2013-01-22 01:15:00,50.9,45.3,30.13,SE,142,0.0,0.0,81,0.00,,,0.00,0,Wunderground v.1.15,2013-01-22 07:15:00,
2013-01-22 01:20:00,50.7,45.1,30.13,SE,142,0.0,0.0,81,0.00,,,0.00,0,Wunderground v.1.15,2013-01-22 07:20:00,
2013-01-22 01:25:00,50.5,44.9,30.13,SE,142,0.0,0.0,81,0.00,,,0.00,0,Wunderground v.1.15,2013-01-22 07:25:00,
2013-01-22 01:30:00,50.3,45.0,30.13,SE,142,0.0,0.0,82,0.00,,,0.00,0,Wunderground v.1.15,2013-01-22 07:30:00,
2013-01-22 01:35:00,50.1,44.8,30.13,SE,142,0.0,0.0,82,0.00,,,0.00,0,Wunderground v.1.15,2013-01-22 07:35:00,
2013-01-22 01:40:00,50.0,44.7,30.13,SE,142,0.0,0.0,82,0.00,,,0.00,0,Wunderground v.1.15,2013-01-22 07:40:00,
2013-01-22 01:50:00,49.6,44.6,30.13,SE,142,0.0,0.0,83,0.00,,,0.00,0,Wunderground v.1.15,2013-01-22 07:50:00,
2013-01-22 01:55:00,49.6,45.0,30.13,SE,142,0.0,0.0,84,0.00,,,0.00,0,Wunderground v.1.15,2013-01-22 07:55:00,
2013-01-22 02:00:00,49.6,45.0,30.13,SE,142,0.0,0.0,84,0.00,,,0.00,0,Wunderground v.1.15,2013-01-22 08:00:00,
2013-01-22 02:05:00,49.5,44.9,30.13,SE,142,1.0,3.0,84,0.00,,,0.00,0,Wunderground v.1.15,2013-01-22 08:05:00,
2013-01-22 02:10:00,49.5,44.9,30.13,SE,142,2.0,2.0,84,0.00,,,0.00,0,Wunderground v.1.15,2013-01-22 08:10:00,
2013-01-22 02:15:00,49.4,44.8,30.13,SE,142,1.0,2.0,84,0.00,,,0.00,0,Wunderground v.1.15,2013-01-22 08:15:00,
2013-01-22 02:25:00,49.3,44.7,30.13,SE,142,0.0,0.0,84,0.00,,,0.00,0,Wunderground v.1.15,2013-01-22 08:25:00,
2013-01-22 02:30:00,49.2,44.9,30.14,SE,142,0.0,0.0,85,0.00,,,0.00,0,Wunderground v.1.15,2013-01-22 08:30:00,
2013-01-22 02:35:00,49.1,44.5,30.14,SE,142,0.0,0.0,84,0.00,,,0.00,0,Wunderground v.1.15,2013-01-22 08:35:00,
2013-01-22 02:40:00,49.0,44.4,30.14,SE,142,0.0,0.0,84,0.00,,,0.00,0,Wunderground v.1.15,2013-01-22 08:40:00,
2013-01-22 02:45:00,48.8,44.2,30.14,SE,142,0.0,0.0,84,0.00,,,0.00,0,Wunderground v.1.15,2013-01-22 08:45:00,
2013-01-22 02:50:00,48.7,44.1,30.14,SE,142,0.0,0.0,84,0.00,,,0.00,0,Wunderground v.1.15,2013-01-22 08:50:00,
2013-01-22 02:55:00,48.6,44.3,30.14,SE,142,0.0,0.0,85,0.00,,,0.00,0,Wunderground v.1.15,2013-01-22 08:55:00,
2013-01-22 03:00:00,48.5,44.2,30.14,SE,142,0.0,0.0,85,0.00,,,0.00,0,Wunderground v.1.15,2013-01-22 09:00:00,
2013-01-22 03:05:00,48.4,44.1,30.14,SE,142,1.0,3.0,85,0.00,,,0.00,0,Wunderground v.1.15,2013-01-22 09:05:00,
2013-01-22 03:10:00,48.4,44.4,30.14,SE,142,2.0,2.0,86,0.00,,,0.00,0,Wunderground v.1.15,2013-01-22 09:10:00,
2013-01-22 03:15:00,48.4,44.4,30.14,SE,142,3.0,3.0,86,0.00,,,0.00,0,Wunderground v.1.15,2013-01-22 09:15:00,
2013-01-22 03:20:00,48.5,44.5,30.14,SE,142,2.0,2.0,86,0.00,,,0.00,0,Wunderground v.1.15,2013-01-22 09:20:00,
2013-01-22 03:25:00,48.7,44.7,30.14,SE,142,1.0,2.0,86,0.00,,,0.00,0,Wunderground v.1.15,2013-01-22 09:25:00,
2013-01-22 03:30:00,48.8,45.1,30.14,SE,142,1.0,1.0,87,0.00,,,0.00,0,Wunderground v.1.15,2013-01-22 09:30:00,
2013-01-22 03:35:00,49.0,45.0,30.14,SE,142,1.0,1.0,86,0.00,,,0.00,0,Wunderground v.1.15,2013-01-22 09:35:00,
2013-01-22 03:40:00,49.2,45.2,30.14,SE,140,1.0,1.0,86,0.00,,,0.00,0,Wunderground v.1.15,2013-01-22 09:40:00,
2013-01-22 03:45:00,49.3,45.3,30.15,SE,140,2.0,2.0,86,0.00,,,0.00,0,Wunderground v.1.15,2013-01-22 09:45:00,
2013-01-22 03:50:00,49.5,45.2,30.15,SE,137,1.0,1.0,85,0.00,,,0.00,0,Wunderground v.1.15,2013-01-22 09:50:00,
2013-01-22 03:55:00,49.6,45.3,30.15,SE,134,1.0,1.0,85,0.00,,,0.00,0,Wunderground v.1.15,2013-01-22 09:55:00,
2013-01-22 04:00:00,49.7,45.1,30.15,SE,133,1.0,1.0,84,0.00,,,0.00,0,Wunderground v.1.15,2013-01-22 10:00:00,
2013-01-22 04:05:00,49.7,45.1,30.15,SE,130,2.0,2.0,84,0.00,,,0.00,0,Wunderground v.1.15,2013-01-22 10:05:00,
2013-01-22 04:15:00,49.8,44.8,30.15,SE,130,1.0,1.0,83,0.00,,,0.00,0,Wunderground v.1.15,2013-01-22 10:15:00,
2013-01-22 04:20:00,49.8,44.8,30.15,SE,131,0.0,0.0,83,0.00,,,0.00,0,Wunderground v.1.15,2013-01-22 10:20:00,
2013-01-22 04:30:00,49.9,44.9,30.15,SE,131,0.0,0.0,83,0.00,,,0.00,0,Wunderground v.1.15,2013-01-22 10:30:00,
2013-01-22 04:35:00,50.0,45.0,30.15,SE,130,1.0,2.0,83,0.00,,,0.00,0,Wunderground v.1.15,2013-01-22 10:35:00,
2013-01-22 04:45:00,50.3,45.3,30.15,SE,130,3.0,5.0,83,0.00,,,0.00,0,Wunderground v.1.15,2013-01-22 10:45:00,
2013-01-22 04:50:00,50.4,45.1,30.15,SE,129,3.0,5.0,82,0.00,,,0.00,0,Wunderground v.1.15,2013-01-22 10:50:00,
2013-01-22 04:55:00,50.5,45.2,30.15,SE,124,3.0,5.0,82,0.00,,,0.00,0,Wunderground v.1.15,2013-01-22 10:55:00,
2013-01-22 05:00:00,50.6,45.3,30.15,ESE,121,3.0,4.0,82,0.00,,,0.00,0,Wunderground v.1.15,2013-01-22 11:00:00,
2013-01-22 05:05:00,50.6,45.0,30.15,ESE,121,3.0,4.0,81,0.00,,,0.00,0,Wunderground v.1.15,2013-01-22 11:05:00,
2013-01-22 05:10:00,50.7,45.1,30.15,ESE,117,2.0,7.0,81,0.00,,,0.00,0,Wunderground v.1.15,2013-01-22 11:10:00,
2013-01-22 05:15:00,50.7,45.1,30.16,ESE,115,2.0,7.0,81,0.00,,,0.00,0,Wunderground v.1.15,2013-01-22 11:15:00,
2013-01-22 05:25:00,50.8,45.2,30.16,ESE,114,1.0,5.0,81,0.00,,,0.00,0,Wunderground v.1.15,2013-01-22 11:25:00,
2013-01-22 05:35:00,50.8,45.2,30.16,ESE,105,4.0,4.0,81,0.00,,,0.00,0,Wunderground v.1.15,2013-01-22 11:35:00,
2013-01-22 05:40:00,50.8,44.9,30.16,ESE,103,4.0,7.0,80,0.00,,,0.00,0,Wunderground v.1.15,2013-01-22 11:40:00,
2013-01-22 05:45:00,50.8,44.9,30.17,ESE,102,3.0,7.0,80,0.00,,,0.00,0,Wunderground v.1.15,2013-01-22 11:45:00,
2013-01-22 05:50:00,50.8,45.2,30.17,ESE,103,3.0,3.0,81,0.00,,,0.00,0,Wunderground v.1.15,2013-01-22 11:50:00,
2013-01-22 05:55:00,50.8,45.2,30.17,ESE,102,3.0,3.0,81,0.00,,,0.00,0,Wunderground v.1.15,2013-01-22 11:55:00,
2013-01-22 06:00:00,50.8,45.2,30.18,ESE,102,2.0,2.0,81,0.00,,,0.00,0,Wunderground v.1.15,2013-01-22 12:00:00,
2013-01-22 06:05:00,50.8,44.9,30.18,East,101,2.0,2.0,80,0.00,,,0.00,0,Wunderground v.1.15,2013-01-22 12:05:00,
2013-01-22 06:10:00,50.8,44.9,30.18,East,100,3.0,3.0,80,0.00,,,0.00,0,Wunderground v.1.15,2013-01-22 12:10:00,
2013-01-22 06:15:00,50.8,44.9,30.19,East,100,3.0,3.0,80,0.00,,,0.00,0,Wunderground v.1.15,2013-01-22 12:15:00,
2013-01-22 06:20:00,50.8,44.9,30.19,East,99,3.0,3.0,80,0.00,,,0.00,0,Wunderground v.1.15,2013-01-22 12:20:00,
2013-01-22 06:25:00,50.8,44.9,30.19,East,99,3.0,3.0,80,0.00,,,0.00,0,Wunderground v.1.15,2013-01-22 12:25:00,
2013-01-22 06:30:00,50.9,44.9,30.19,East,99,1.0,4.0,80,0.00,,,0.00,0,Wunderground v.1.15,2013-01-22 12:30:00,
2013-01-22 06:35:00,50.9,44.9,30.19,East,98,1.0,7.0,80,0.00,,,0.00,0,Wunderground v.1.15,2013-01-22 12:35:00,
2013-01-22 06:40:00,50.9,44.9,30.19,East,98,3.0,3.0,80,0.00,,,0.00,0,Wunderground v.1.15,2013-01-22 12:40:00,
2013-01-22 06:45:00,50.9,44.9,30.20,East,98,3.0,3.0,80,0.00,,,0.00,0,Wunderground v.1.15,2013-01-22 12:45:00,
2013-01-22 06:50:00,51.0,45.0,30.20,East,98,2.0,3.0,80,0.00,,,0.00,0,Wunderground v.1.15,2013-01-22 12:50:00,
2013-01-22 06:55:00,51.0,45.0,30.20,East,98,2.0,3.0,80,0.00,,,0.00,0,Wunderground v.1.15,2013-01-22 12:55:00,
2013-01-22 07:00:00,51.1,45.1,30.20,East,98,1.0,3.0,80,0.00,,,0.00,0,Wunderground v.1.15,2013-01-22 13:00:00,
2013-01-22 07:05:00,51.1,45.1,30.20,East,98,1.0,3.0,80,0.00,,,0.00,0,Wunderground v.1.15,2013-01-22 13:05:00,
2013-01-22 07:10:00,51.2,45.2,30.20,East,98,0.0,0.0,80,0.00,,,0.00,0,Wunderground v.1.15,2013-01-22 13:10:00,
2013-01-22 07:15:00,51.2,45.2,30.21,East,98,0.0,0.0,80,0.00,,,0.00,0,Wunderground v.1.15,2013-01-22 13:15:00,
2013-01-22 07:20:00,51.2,44.9,30.21,East,98,0.0,0.0,79,0.00,,,0.00,0,Wunderground v.1.15,2013-01-22 13:20:00,
2013-01-22 07:30:00,51.2,44.9,30.21,East,98,0.0,0.0,79,0.00,,,0.00,0,Wunderground v.1.15,2013-01-22 13:30:00,
2013-01-22 07:35:00,51.3,45.0,30.21,East,98,0.0,0.0,79,0.00,,,0.00,0,Wunderground v.1.15,2013-01-22 13:35:00,
2013-01-22 07:40:00,51.3,45.0,30.21,East,98,0.0,0.0,79,0.00,,,0.00,7,Wunderground v.1.15,2013-01-22 13:40:00,
2013-01-22 07:45:00,51.4,45.1,30.20,East,98,0.0,0.0,79,0.00,,,0.00,11,Wunderground v.1.15,2013-01-22 13:45:00,
2013-01-22 07:50:00,51.4,45.1,30.20,East,98,0.0,0.0,79,0.00,,,0.00,14,Wunderground v.1.15,2013-01-22 13:50:00,
2013-01-22 07:55:00,51.4,45.1,30.20,East,98,0.0,0.0,79,0.00,,,0.00,18,Wunderground v.1.15,2013-01-22 13:55:00,
2013-01-22 08:00:00,51.5,45.2,30.21,East,98,0.0,0.0,79,0.00,,,0.00,25,Wunderground v.1.15,2013-01-22 14:00:00,
2013-01-22 08:05:00,51.5,45.2,30.21,East,98,0.0,0.0,79,0.00,,,0.00,33,Wunderground v.1.15,2013-01-22 14:05:00,
2013-01-22 08:15:00,51.6,45.3,30.20,East,98,0.0,0.0,79,0.00,,,0.00,74,Wunderground v.1.15,2013-01-22 14:15:00,
2013-01-22 08:20:00,52.1,45.8,30.20,East,98,0.0,0.0,79,0.00,,,0.00,116,Wunderground v.1.15,2013-01-22 14:20:00,
2013-01-22 08:25:00,52.5,45.5,30.20,East,98,0.0,2.0,77,0.00,,,0.00,141,Wunderground v.1.15,2013-01-22 14:25:00,
2013-01-22 08:30:00,52.7,45.3,30.21,East,98,2.0,2.0,76,0.00,,,0.00,127,Wunderground v.1.15,2013-01-22 14:30:00,
2013-01-22 08:35:00,52.9,45.2,30.21,East,96,3.0,4.0,75,0.00,,,0.00,114,Wunderground v.1.15,2013-01-22 14:35:00,
2013-01-22 08:40:00,53.0,45.3,30.21,East,96,3.0,6.0,75,0.00,,,0.00,162,Wunderground v.1.15,2013-01-22 14:40:00,
2013-01-22 08:50:00,53.4,45.3,30.21,East,98,1.0,1.0,74,0.00,,,0.00,220,Wunderground v.1.15,2013-01-22 14:50:00,
2013-01-22 09:00:00,53.7,45.6,30.21,East,98,3.0,3.0,74,0.00,,,0.00,260,Wunderground v.1.15,2013-01-22 15:00:00,
2013-01-22 09:10:00,54.5,46.0,30.21,East,98,1.0,1.0,73,0.00,,,0.00,98,Wunderground v.1.15,2013-01-22 15:10:00,
2013-01-22 09:15:00,54.2,45.7,30.22,East,98,0.0,1.0,73,0.00,,,0.00,209,Wunderground v.1.15,2013-01-22 15:15:00,
2013-01-22 09:25:00,54.9,46.4,30.22,East,98,0.0,2.0,73,0.00,,,0.00,339,Wunderground v.1.15,2013-01-22 15:25:00,
2013-01-22 09:30:00,55.6,46.7,30.22,East,98,1.0,3.0,72,0.00,,,0.00,413,Wunderground v.1.15,2013-01-22 15:30:00,
2013-01-22 09:35:00,55.8,46.9,30.22,East,98,3.0,5.0,72,0.00,,,0.00,192,Wunderground v.1.15,2013-01-22 15:35:00,
2013-01-22 09:40:00,55.6,46.7,30.22,East,98,3.0,3.0,72,0.00,,,0.00,148,Wunderground v.1.15,2013-01-22 15:40:00,
2013-01-22 09:45:00,55.7,46.8,30.23,East,98,2.0,3.0,72,0.00,,,0.00,178,Wunderground v.1.15,2013-01-22 15:45:00,
2013-01-22 09:50:00,56.4,47.1,30.23,East,97,0.0,0.0,71,0.00,,,0.00,415,Wunderground v.1.15,2013-01-22 15:50:00,
2013-01-22 09:55:00,56.9,47.2,30.23,East,98,1.0,1.0,70,0.00,,,0.00,413,Wunderground v.1.15,2013-01-22 15:55:00,
2013-01-22 10:05:00,57.9,47.8,30.23,East,96,0.0,1.0,69,0.00,,,0.00,439,Wunderground v.1.15,2013-01-22 16:05:00,
2013-01-22 10:10:00,58.0,47.9,30.23,East,98,0.0,0.0,69,0.00,,,0.00,448,Wunderground v.1.15,2013-01-22 16:10:00,
2013-01-22 10:20:00,59.2,48.2,30.24,East,97,0.0,0.0,67,0.00,,,0.00,464,Wunderground v.1.15,2013-01-22 16:20:00,
2013-01-22 10:25:00,59.5,48.5,30.24,East,98,0.0,0.0,67,0.00,,,0.00,230,Wunderground v.1.15,2013-01-22 16:25:00,
2013-01-22 10:30:00,60.0,49.8,30.24,East,98,1.0,1.0,69,0.00,,,0.00,566,Wunderground v.1.15,2013-01-22 16:30:00,
2013-01-22 10:35:00,61.1,50.5,30.24,East,98,1.0,2.0,68,0.00,,,0.00,580,Wunderground v.1.15,2013-01-22 16:35:00,
2013-01-22 10:45:00,62.2,51.1,30.24,East,98,1.0,2.0,67,0.00,,,0.00,295,Wunderground v.1.15,2013-01-22 16:45:00,
2013-01-22 10:50:00,61.6,51.7,30.24,East,98,1.0,1.0,70,0.00,,,0.00,327,Wunderground v.1.15,2013-01-22 16:50:00,
2013-01-22 10:55:00,61.4,51.1,30.24,East,98,2.0,2.0,69,0.00,,,0.00,380,Wunderground v.1.15,2013-01-22 16:55:00,
2013-01-22 11:05:00,61.4,51.1,30.24,East,97,3.0,4.0,69,0.00,,,0.00,452,Wunderground v.1.15,2013-01-22 17:05:00,
2013-01-22 11:10:00,62.3,52.0,30.24,East,98,2.0,4.0,69,0.00,,,0.00,499,Wunderground v.1.15,2013-01-22 17:10:00,
2013-01-22 11:15:00,62.3,51.2,30.24,East,98,2.0,4.0,67,0.00,,,0.00,499,Wunderground v.1.15,2013-01-22 17:15:00,
2013-01-22 11:20:00,63.2,52.1,30.24,ESE,102,3.0,3.0,67,0.00,,,0.00,619,Wunderground v.1.15,2013-01-22 17:20:00,
2013-01-22 11:25:00,63.6,52.0,30.24,ESE,102,1.0,5.0,66,0.00,,,0.00,626,Wunderground v.1.15,2013-01-22 17:25:00,
2013-01-22 11:30:00,64.4,52.8,30.23,ESE,103,2.0,5.0,66,0.00,,,0.00,635,Wunderground v.1.15,2013-01-22 17:30:00,
2013-01-22 11:35:00,65.4,53.7,30.23,ESE,114,3.0,7.0,66,0.00,,,0.00,645,Wunderground v.1.15,2013-01-22 17:35:00,
2013-01-22 11:40:00,66.1,54.4,30.23,SE,125,4.0,5.0,66,0.00,,,0.00,487,Wunderground v.1.15,2013-01-22 17:40:00,
2013-01-22 11:50:00,66.8,54.7,30.21,South,176,6.0,6.0,65,0.00,,,0.00,543,Wunderground v.1.15,2013-01-22 17:50:00,
2013-01-22 12:00:00,67.2,54.6,30.21,South,171,7.0,7.0,64,0.00,,,0.00,631,Wunderground v.1.15,2013-01-22 18:00:00,
2013-01-22 12:05:00,67.3,54.3,30.21,SSE,168,7.0,7.0,63,0.00,,,0.00,636,Wunderground v.1.15,2013-01-22 18:05:00,
2013-01-22 12:10:00,67.9,54.4,30.21,South,183,8.0,12.0,62,0.00,,,0.00,643,Wunderground v.1.15,2013-01-22 18:10:00,
2013-01-22 12:20:00,67.4,53.5,30.19,SE,142,9.0,12.0,61,0.00,,,0.00,649,Wunderground v.1.15,2013-01-22 18:20:00,
2013-01-22 12:25:00,67.5,54.5,30.19,South,182,8.0,13.0,63,0.00,,,0.00,647,Wunderground v.1.15,2013-01-22 18:25:00,
2013-01-22 12:30:00,68.1,54.1,30.18,South,183,9.0,10.0,61,0.00,,,0.00,649,Wunderground v.1.15,2013-01-22 18:30:00,
2013-01-22 12:35:00,68.4,54.4,30.18,South,186,10.0,14.0,61,0.00,,,0.00,647,Wunderground v.1.15,2013-01-22 18:35:00,
2013-01-22 12:40:00,68.7,54.3,30.18,SE,143,9.0,9.0,60,0.00,,,0.00,647,Wunderground v.1.15,2013-01-22 18:40:00,
2013-01-22 12:45:00,68.8,54.8,30.18,SSE,167,7.0,9.0,61,0.00,,,0.00,649,Wunderground v.1.15,2013-01-22 18:45:00,
2013-01-22 12:50:00,68.9,54.9,30.18,SSW,194,7.0,10.0,61,0.00,,,0.00,638,Wunderground v.1.15,2013-01-22 18:50:00,
2013-01-22 12:55:00,69.2,55.2,30.18,SSW,194,7.0,10.0,61,0.00,,,0.00,642,Wunderground v.1.15,2013-01-22 18:55:00,
2013-01-22 13:00:00,69.7,54.7,30.16,SSW,192,5.0,5.0,59,0.00,,,0.00,647,Wunderground v.1.15,2013-01-22 19:00:00,
2013-01-22 13:05:00,70.0,54.1,30.16,South,171,6.0,7.0,57,0.00,,,0.00,643,Wunderground v.1.15,2013-01-22 19:05:00,
2013-01-22 13:10:00,69.5,53.6,30.16,SSE,153,7.0,7.0,57,0.00,,,0.00,643,Wunderground v.1.15,2013-01-22 19:10:00,
2013-01-22 13:15:00,70.1,54.2,30.16,South,178,8.0,9.0,57,0.00,,,0.00,643,Wunderground v.1.15,2013-01-22 19:15:00,
2013-01-22 13:20:00,70.6,53.6,30.16,SSE,164,10.0,10.0,55,0.00,,,0.00,638,Wunderground v.1.15,2013-01-22 19:20:00,
2013-01-22 13:25:00,70.0,54.1,30.16,SSW,203,9.0,10.0,57,0.00,,,0.00,635,Wunderground v.1.15,2013-01-22 19:25:00,
2013-01-22 13:30:00,70.2,54.7,30.15,SSW,209,8.0,10.0,58,0.00,,,0.00,631,Wunderground v.1.15,2013-01-22 19:30:00,
2013-01-22 13:35:00,70.3,53.9,30.15,SE,145,8.0,10.0,56,0.00,,,0.00,626,Wunderground v.1.15,2013-01-22 19:35:00,
2013-01-22 13:40:00,70.8,54.3,30.15,SSE,167,6.0,7.0,56,0.00,,,0.00,624,Wunderground v.1.15,2013-01-22 19:40:00,
2013-01-22 13:45:00,71.3,54.3,30.14,SE,146,7.0,13.0,55,0.00,,,0.00,621,Wunderground v.1.15,2013-01-22 19:45:00,
2013-01-22 13:55:00,70.6,53.6,30.14,South,175,9.0,10.0,55,0.00,,,0.00,603,Wunderground v.1.15,2013-01-22 19:55:00,
2013-01-22 14:00:00,70.5,53.6,30.13,SE,144,9.0,9.0,55,0.00,,,0.00,603,Wunderground v.1.15,2013-01-22 20:00:00,
2013-01-22 14:05:00,71.0,53.5,30.13,South,171,9.0,12.0,54,0.00,,,0.00,596,Wunderground v.1.15,2013-01-22 20:05:00,
2013-01-22 14:10:00,71.1,54.6,30.13,SSW,199,9.0,11.0,56,0.00,,,0.00,587,Wunderground v.1.15,2013-01-22 20:10:00,
2013-01-22 14:15:00,71.3,54.8,30.13,SSW,206,9.0,11.0,56,0.00,,,0.00,575,Wunderground v.1.15,2013-01-22 20:15:00,
2013-01-22 14:20:00,71.3,54.3,30.13,SSE,159,8.0,8.0,55,0.00,,,0.00,570,Wunderground v.1.15,2013-01-22 20:20:00,
2013-01-22 14:25:00,71.3,53.8,30.13,South,188,6.0,8.0,54,0.00,,,0.00,559,Wunderground v.1.15,2013-01-22 20:25:00,
2013-01-22 14:30:00,71.4,54.4,30.13,SSE,150,7.0,7.0,55,0.00,,,0.00,552,Wunderground v.1.15,2013-01-22 20:30:00,
2013-01-22 14:35:00,71.9,54.9,30.13,South,174,7.0,7.0,55,0.00,,,0.00,545,Wunderground v.1.15,2013-01-22 20:35:00,
2013-01-22 14:40:00,71.7,54.7,30.13,South,175,6.0,6.0,55,0.00,,,0.00,536,Wunderground v.1.15,2013-01-22 20:40:00,
2013-01-22 14:45:00,72.2,55.1,30.12,SSE,161,6.0,6.0,55,0.00,,,0.00,524,Wunderground v.1.15,2013-01-22 20:45:00,
2013-01-22 14:50:00,72.3,55.2,30.12,SSW,192,5.0,10.0,55,0.00,,,0.00,503,Wunderground v.1.15,2013-01-22 20:50:00,
2013-01-22 15:00:00,72.8,54.7,30.11,South,191,10.0,11.0,53,0.00,,,0.00,499,Wunderground v.1.15,2013-01-22 21:00:00,
2013-01-22 15:05:00,72.8,54.1,30.11,SSW,192,9.0,11.0,52,0.00,,,0.00,483,Wunderground v.1.15,2013-01-22 21:05:00,
2013-01-22 15:10:00,73.3,54.6,30.11,SSW,199,10.0,11.0,52,0.00,,,0.00,475,Wunderground v.1.15,2013-01-22 21:10:00,
2013-01-22 15:15:00,73.2,54.0,30.11,SSW,202,10.0,11.0,51,0.00,,,0.00,464,Wunderground v.1.15,2013-01-22 21:15:00,
2013-01-22 15:20:00,73.1,53.9,30.11,SSE,155,8.0,8.0,51,0.00,,,0.00,455,Wunderground v.1.15,2013-01-22 21:20:00,
2013-01-22 15:25:00,73.3,53.5,30.11,SSW,202,7.0,12.0,50,0.00,,,0.00,439,Wunderground v.1.15,2013-01-22 21:25:00,
2013-01-22 15:30:00,73.5,53.7,30.11,SSE,158,9.0,12.0,50,0.00,,,0.00,418,Wunderground v.1.15,2013-01-22 21:30:00,
2013-01-22 15:35:00,72.7,53.5,30.11,South,171,9.0,12.0,51,0.00,,,0.00,406,Wunderground v.1.15,2013-01-22 21:35:00,
2013-01-22 15:40:00,73.0,54.3,30.11,SSE,161,9.0,9.0,52,0.00,,,0.00,406,Wunderground v.1.15,2013-01-22 21:40:00,
2013-01-22 15:45:00,73.0,53.8,30.11,South,183,8.0,9.0,51,0.00,,,0.00,392,Wunderground v.1.15,2013-01-22 21:45:00,
2013-01-22 15:55:00,72.6,54.0,30.11,SSW,193,7.0,13.0,52,0.00,,,0.00,388,Wunderground v.1.15,2013-01-22 21:55:00,
2013-01-22 16:00:00,72.7,53.5,30.11,SSE,160,8.0,8.0,51,0.00,,,0.00,148,Wunderground v.1.15,2013-01-22 22:00:00,
2013-01-22 16:05:00,72.1,53.5,30.11,South,178,8.0,8.0,52,0.00,,,0.00,76,Wunderground v.1.15,2013-01-22 22:05:00,
2013-01-22 16:10:00,72.7,53.5,30.11,South,173,7.0,7.0,51,0.00,,,0.00,253,Wunderground v.1.15,2013-01-22 22:10:00,
2013-01-22 16:15:00,72.6,52.9,30.11,SSE,167,7.0,7.0,50,0.00,,,0.00,315,Wunderground v.1.15,2013-01-22 22:15:00,
2013-01-22 16:20:00,73.0,53.3,30.11,South,175,8.0,8.0,50,0.00,,,0.00,306,Wunderground v.1.15,2013-01-22 22:20:00,
2013-01-22 16:25:00,72.5,52.8,30.11,South,169,8.0,8.0,50,0.00,,,0.00,83,Wunderground v.1.15,2013-01-22 22:25:00,
2013-01-22 16:35:00,71.7,52.6,30.11,SSE,153,4.0,6.0,51,0.00,,,0.00,253,Wunderground v.1.15,2013-01-22 22:35:00,
2013-01-22 16:40:00,71.9,52.8,30.11,South,175,6.0,6.0,51,0.00,,,0.00,67,Wunderground v.1.15,2013-01-22 22:40:00,
2013-01-22 16:45:00,71.3,52.2,30.11,South,169,7.0,7.0,51,0.00,,,0.00,67,Wunderground v.1.15,2013-01-22 22:45:00,
2013-01-22 16:50:00,71.3,52.2,30.11,South,174,7.0,10.0,51,0.00,,,0.00,202,Wunderground v.1.15,2013-01-22 22:50:00,
2013-01-22 16:55:00,71.9,52.8,30.11,South,175,8.0,10.0,51,0.00,,,0.00,181,Wunderground v.1.15,2013-01-22 22:55:00,
2013-01-22 17:00:00,72.0,52.3,30.11,South,184,9.0,10.0,50,0.00,,,0.00,153,Wunderground v.1.15,2013-01-22 23:00:00,
2013-01-22 17:05:00,71.8,52.2,30.11,South,175,7.0,10.0,50,0.00,,,0.00,111,Wunderground v.1.15,2013-01-22 23:05:00,
2013-01-22 17:10:00,71.8,52.2,30.11,South,183,6.0,8.0,50,0.00,,,0.00,67,Wunderground v.1.15,2013-01-22 23:10:00,
2013-01-22 17:15:00,71.6,52.0,30.11,SSE,157,6.0,9.0,50,0.00,,,0.00,86,Wunderground v.1.15,2013-01-22 23:15:00,
2013-01-22 17:25:00,71.1,52.0,30.11,South,175,6.0,6.0,51,0.00,,,0.00,53,Wunderground v.1.15,2013-01-22 23:25:00,
2013-01-22 17:30:00,70.8,51.8,30.11,South,169,5.0,5.0,51,0.00,,,0.00,47,Wunderground v.1.15,2013-01-22 23:30:00,
2013-01-22 17:35:00,70.5,51.5,30.11,SSE,168,4.0,5.0,51,0.00,,,0.00,40,Wunderground v.1.15,2013-01-22 23:35:00,
2013-01-22 17:40:00,70.3,51.3,30.11,South,169,3.0,5.0,51,0.00,,,0.00,28,Wunderground v.1.15,2013-01-22 23:40:00,
2013-01-22 17:45:00,70.0,51.0,30.12,SSE,168,3.0,5.0,51,0.00,,,0.00,21,Wunderground v.1.15,2013-01-22 23:45:00,
2013-01-22 17:50:00,69.9,50.9,30.12,South,169,3.0,3.0,51,0.00,,,0.00,14,Wunderground v.1.15,2013-01-22 23:50:00,
2013-01-22 17:55:00,69.7,50.8,30.12,South,169,3.0,3.0,51,0.00,,,0.00,7,Wunderground v.1.15,2013-01-22 23:55:00,
2013-01-22 18:00:00,69.5,50.6,30.12,South,169,2.0,2.0,51,0.00,,,0.00,5,Wunderground v.1.15,2013-01-23 00:00:00,
2013-01-22 18:05:00,69.2,50.8,30.12,SSE,168,2.0,3.0,52,0.00,,,0.00,0,Wunderground v.1.15,2013-01-23 00:05:00,
2013-01-22 18:15:00,68.6,50.3,30.12,South,169,2.0,2.0,52,0.00,,,0.00,0,Wunderground v.1.15,2013-01-23 00:15:00,
2013-01-22 18:20:00,68.4,50.6,30.12,South,169,1.0,1.0,53,0.00,,,0.00,0,Wunderground v.1.15,2013-01-23 00:20:00,
2013-01-22 18:25:00,68.2,50.4,30.12,South,169,1.0,1.0,53,0.00,,,0.00,0,Wunderground v.1.15,2013-01-23 00:25:00,
2013-01-22 18:35:00,67.6,50.4,30.12,South,169,1.0,2.0,54,0.00,,,0.00,0,Wunderground v.1.15,2013-01-23 00:35:00,
2013-01-22 18:45:00,66.9,50.2,30.13,South,169,2.0,2.0,55,0.00,,,0.00,0,Wunderground v.1.15,2013-01-23 00:45:00,
2013-01-22 18:50:00,66.7,50.0,30.13,South,169,2.0,3.0,55,0.00,,,0.00,0,Wunderground v.1.15,2013-01-23 00:50:00,
2013-01-22 18:55:00,66.3,50.1,30.13,South,169,2.0,3.0,56,0.00,,,0.00,0,Wunderground v.1.15,2013-01-23 00:55:00,
2013-01-22 19:05:00,65.8,50.1,30.13,South,169,2.0,2.0,57,0.00,,,0.00,0,Wunderground v.1.15,2013-01-23 01:05:00,
2013-01-22 19:10:00,65.6,50.0,30.13,South,169,1.0,1.0,57,0.00,,,0.00,0,Wunderground v.1.15,2013-01-23 01:10:00,
2013-01-22 19:15:00,65.3,50.1,30.13,South,169,2.0,2.0,58,0.00,,,0.00,0,Wunderground v.1.15,2013-01-23 01:15:00,
2013-01-22 19:20:00,64.9,49.8,30.13,South,169,2.0,5.0,58,0.00,,,0.00,0,Wunderground v.1.15,2013-01-23 01:20:00,
2013-01-22 19:25:00,64.7,50.0,30.13,SSE,167,3.0,5.0,59,0.00,,,0.00,0,Wunderground v.1.15,2013-01-23 01:25:00,
2013-01-22 19:30:00,64.4,49.8,30.13,SSE,166,3.0,3.0,59,0.00,,,0.00,0,Wunderground v.1.15,2013-01-23 01:30:00,
2013-01-22 19:40:00,64.0,49.8,30.13,SSE,165,2.0,2.0,60,0.00,,,0.00,0,Wunderground v.1.15,2013-01-23 01:40:00,
2013-01-22 19:45:00,63.8,50.1,30.13,SSE,165,2.0,3.0,61,0.00,,,0.00,0,Wunderground v.1.15,2013-01-23 01:45:00,
2013-01-22 19:50:00,63.6,49.9,30.13,SSE,165,2.0,2.0,61,0.00,,,0.00,0,Wunderground v.1.15,2013-01-23 01:50:00,
2013-01-22 19:55:00,63.4,49.7,30.13,SSE,165,2.0,4.0,61,0.00,,,0.00,0,Wunderground v.1.15,2013-01-23 01:55:00,
2013-01-22 20:00:00,63.2,50.0,30.13,SSE,163,3.0,4.0,62,0.00,,,0.00,0,Wunderground v.1.15,2013-01-23 02:00:00,
2013-01-22 20:05:00,62.9,50.1,30.13,SSE,164,4.0,6.0,63,0.00,,,0.00,0,Wunderground v.1.15,2013-01-23 02:05:00,
2013-01-22 20:10:00,62.7,50.3,30.13,SSE,161,5.0,7.0,64,0.00,,,0.00,0,Wunderground v.1.15,2013-01-23 02:10:00,
2013-01-22 20:20:00,62.3,50.4,30.14,SSE,161,4.0,5.0,65,0.00,,,0.00,0,Wunderground v.1.15,2013-01-23 02:20:00,
2013-01-22 20:25:00,62.2,50.7,30.14,SSE,161,4.0,6.0,66,0.00,,,0.00,0,Wunderground v.1.15,2013-01-23 02:25:00,
2013-01-22 20:30:00,62.0,50.9,30.14,SSE,161,5.0,6.0,67,0.00,,,0.00,0,Wunderground v.1.15,2013-01-23 02:30:00,
2013-01-22 20:40:00,61.8,51.1,30.14,SSE,165,6.0,10.0,68,0.00,,,0.00,0,Wunderground v.1.15,2013-01-23 02:40:00,
2013-01-22 20:45:00,61.8,51.1,30.15,South,169,6.0,10.0,68,0.00,,,0.00,0,Wunderground v.1.15,2013-01-23 02:45:00,
2013-01-22 20:50:00,61.7,51.0,30.15,SSE,157,6.0,10.0,68,0.00,,,0.00,0,Wunderground v.1.15,2013-01-23 02:50:00,
2013-01-22 20:55:00,61.5,51.2,30.15,SSE,160,6.0,10.0,69,0.00,,,0.00,0,Wunderground v.1.15,2013-01-23 02:55:00,
2013-01-22 21:00:00,61.4,51.1,30.15,South,172,6.0,6.0,69,0.00,,,0.00,0,Wunderground v.1.15,2013-01-23 03:00:00,
2013-01-22 21:05:00,61.2,51.3,30.15,SSE,153,5.0,7.0,70,0.00,,,0.00,0,Wunderground v.1.15,2013-01-23 03:05:00,
2013-01-22 21:10:00,61.0,51.1,30.15,SSE,161,5.0,7.0,70,0.00,,,0.00,0,Wunderground v.1.15,2013-01-23 03:10:00,
2013-01-22 21:15:00,60.7,51.2,30.15,SSE,157,4.0,7.0,71,0.00,,,0.00,0,Wunderground v.1.15,2013-01-23 03:15:00,
2013-01-22 21:25:00,60.3,50.9,30.15,SSE,159,3.0,4.0,71,0.00,,,0.00,0,Wunderground v.1.15,2013-01-23 03:25:00,
2013-01-22 21:30:00,60.1,51.0,30.16,SSE,160,3.0,10.0,72,0.00,,,0.00,0,Wunderground v.1.15,2013-01-23 03:30:00,
2013-01-22 21:35:00,59.9,50.8,30.16,SSE,164,4.0,10.0,72,0.00,,,0.00,0,Wunderground v.1.15,2013-01-23 03:35:00,
2013-01-22 21:45:00,59.6,51.3,30.16,SSE,165,6.0,6.0,74,0.00,,,0.00,0,Wunderground v.1.15,2013-01-23 03:45:00,
2013-01-22 21:50:00,59.5,51.2,30.16,SSE,165,5.0,5.0,74,0.00,,,0.00,0,Wunderground v.1.15,2013-01-23 03:50:00,
2013-01-22 22:00:00,59.0,51.1,30.17,SSE,157,4.0,4.0,75,0.00,,,0.00,0,Wunderground v.1.15,2013-01-23 04:00:00,
2013-01-22 22:05:00,59.0,51.1,30.17,SSE,155,3.0,4.0,75,0.00,,,0.00,0,Wunderground v.1.15,2013-01-23 04:05:00,
2013-01-22 22:15:00,58.9,51.3,30.17,SSE,157,3.0,5.0,76,0.00,,,0.00,0,Wunderground v.1.15,2013-01-23 04:15:00,
2013-01-22 22:20:00,58.6,51.4,30.17,SSE,157,3.0,3.0,77,0.00,,,0.00,0,Wunderground v.1.15,2013-01-23 04:20:00,
2013-01-22 22:25:00,58.4,51.2,30.17,SSE,153,3.0,5.0,77,0.00,,,0.00,0,Wunderground v.1.15,2013-01-23 04:25:00,
2013-01-22 22:30:00,58.3,51.5,30.17,SSE,157,4.0,4.0,78,0.00,,,0.00,0,Wunderground v.1.15,2013-01-23 04:30:00,
2013-01-22 22:35:00,58.1,51.3,30.17,SSE,165,4.0,4.0,78,0.00,,,0.00,0,Wunderground v.1.15,2013-01-23 04:35:00,
2013-01-22 22:40:00,58.0,51.5,30.17,SSE,163,4.0,6.0,79,0.00,,,0.00,0,Wunderground v.1.15,2013-01-23 04:40:00,
2013-01-22 22:45:00,57.8,51.3,30.18,SSE,166,4.0,6.0,79,0.00,,,0.00,0,Wunderground v.1.15,2013-01-23 04:45:00,
2013-01-22 22:55:00,57.6,51.5,30.18,SSE,165,3.0,3.0,80,0.00,,,0.00,0,Wunderground v.1.15,2013-01-23 04:55:00,
2013-01-22 23:05:00,57.3,51.2,30.18,SSE,165,3.0,3.0,80,0.00,,,0.00,0,Wunderground v.1.15,2013-01-23 05:05:00,
2013-01-22 23:10:00,57.1,51.0,30.18,SSE,164,3.0,3.0,80,0.00,,,0.00,0,Wunderground v.1.15,2013-01-23 05:10:00,
2013-01-22 23:15:00,57.0,51.2,30.18,SSE,163,3.0,3.0,81,0.00,,,0.00,0,Wunderground v.1.15,2013-01-23 05:15:00,
2013-01-22 23:20:00,56.8,51.0,30.18,SSE,161,3.0,5.0,81,0.00,,,0.00,0,Wunderground v.1.15,2013-01-23 05:20:00,
2013-01-22 23:25:00,56.7,50.9,30.18,SSE,164,3.0,5.0,81,0.00,,,0.00,0,Wunderground v.1.15,2013-01-23 05:25:00,
2013-01-22 23:30:00,56.6,51.2,30.18,SSE,165,4.0,7.0,82,0.00,,,0.00,0,Wunderground v.1.15,2013-01-23 05:30:00,
2013-01-22 23:40:00,56.2,50.8,30.18,SSE,164,3.0,3.0,82,0.00,,,0.00,0,Wunderground v.1.15,2013-01-23 05:40:00,
2013-01-22 23:45:00,56.1,50.7,30.18,SSE,165,2.0,3.0,82,0.00,,,0.00,0,Wunderground v.1.15,2013-01-23 05:45:00,
2013-01-22 23:50:00,55.9,50.5,30.18,SSE,164,2.0,3.0,82,0.00,,,0.00,0,Wunderground v.1.15,2013-01-23 05:50:00,
2013-01-22 23:55:00,55.8,50.7,30.18,SSE,164,2.0,4.0,83,0.00,,,0.00,0,Wunderground v.1.15,2013-01-23 05:55:00,